User: anonymous   Login
Location: *
(58.7167°N, 26.1833°E)
Time: 19:10:45
(UTC+00:00)
Language:

Cosmos 1271 Rocket - Orbit

View from above orbital plane
View from above orbital plane
View from above satellite
View from above satellite

Ground track
Ground track

The orbit data is extracted from the following two-line orbital elements,

1 12465U 81046B   19322.79310479 -.00000021  00000-0 -25299-5 0  9991
2 12465  81.2424  87.6894 0033207 242.9090 116.8750 15.14503691101324
Epoch (UTC): 18 November 2019 19:02:04
Eccentricity: 0.0033207
inclination: 81.2424°
perigee height: 499 km
apogee height: 545 km
right ascension of ascending node: 87.6894°
argument of perigee: 242.9090°
revolutions per day: 15.14503691
mean anomaly at epoch: 116.8750°
orbit number at epoch: 10132

The dashed part of the orbit path shows where the satellite is in the earth's shadow,  

DLR